Location: ????????
(56.0167°N, 38.0333°E)
Time: 22:31:32
(UTC+00:00)

ACS3 Solar Sail - Visible Passes

Search period start: 17 January 2026 00:00
Search period end: 27 January 2026 00:00
Orbit: 897 x 980 km, 97.2° (Epoch: 17 January)

Date Brightness Start Highest point End Pass type
(mag) Time Alt. Az. Time Alt. Az. Time Alt. Az.
17 Jan 3.8 01:34:12 10° N 01:35:40 17° N 01:35:40 17° N visible
17 Jan 3.8 03:18:57 10° NNW 03:19:32 11° NNW 03:19:32 11° NNW visible
18 Jan 4.2 00:05:04 10° NNE 00:05:56 15° NNE 00:05:56 15° NNE visible
18 Jan 3.7 01:48:17 10° N 01:49:48 17° N 01:49:48 17° N visible
19 Jan 4.1 00:19:00 10° NNE 00:20:03 16° NNE 00:20:03 16° NNE visible
19 Jan 3.7 02:02:22 10° N 02:03:55 16° NNW 02:03:55 16° NNW visible
20 Jan 4.0 00:32:56 10° NNE 00:34:09 17° N 00:34:09 17° N visible
20 Jan 3.7 02:16:28 10° N 02:18:01 15° NNW 02:18:01 15° NNW visible
20 Jan 4.6 23:04:18 10° NNE 23:04:22 10° NNE 23:04:22 10° NNE visible
21 Jan 3.9 00:46:53 10° N 00:48:15 17° N 00:48:15 17° N visible
21 Jan 3.7 02:30:35 10° N 02:32:06 14° NNW 02:32:06 14° NNW visible
21 Jan 4.5 23:18:03 10° NNE 23:18:27 12° NNE 23:18:27 12° NNE visible
22 Jan 3.8 01:00:49 10° N 01:02:18 18° N 01:02:18 18° N visible
22 Jan 3.7 02:44:46 10° N 02:46:10 13° NNW 02:46:10 13° NNW visible
22 Jan 4.3 23:31:50 10° NNE 23:32:30 13° NNE 23:32:30 13° NNE visible
23 Jan 3.7 01:14:46 10° N 01:16:22 18° N 01:16:22 18° N visible
23 Jan 3.7 02:59:02 10° NNW 03:00:13 12° NNW 03:00:13 12° NNW visible
23 Jan 4.2 23:45:38 10° NNE 23:46:32 15° NNE 23:46:32 15° NNE visible
24 Jan 3.7 01:28:43 10° N 01:30:23 18° N 01:30:23 18° N visible
24 Jan 3.8 03:13:33 10° NNW 03:14:15 11° NNW 03:14:15 11° NNW visible
24 Jan 4.1 23:59:26 10° NNE 00:00:34 16° NNE 00:00:34 16° NNE visible
25 Jan 3.6 01:42:40 10° N 01:44:25 18° N 01:44:25 18° N visible
26 Jan 4.0 00:13:15 10° NNE 00:14:34 17° NNE 00:14:34 17° NNE visible
26 Jan 3.6 01:56:37 10° N 01:58:25 17° NNW 01:58:25 17° NNW visible
